Regional Weather Roundup
Issued by NWS State College, PA

Home | Current Version | Previous Version | Text Only | Print | Product List | Glossary On
Versions: 1 2 3 4 5 6 7 8 9 10 11 12 13 14 15 16 17 18 19 20 21 22 23 24 25 26 27 28 29 30 31 32 33 34 35 36 37 38 39 40 41 42 43 44 45 46 47 48 49 50
000
ASUS41 KCTP 211910
RWRCTP

REGIONAL WEATHER ROUNDUP
NATIONAL WEATHER SERVICE STATE COLLEGE PA
200 PM EST TUE FEB 21 2017

Note: "fair" indicates few or no clouds below 12,000 feet with no
significant weather and/or obstructions to visibility.

* = STATION THAT DOES NOT REPORT PRECIPITATION /E.G. RAIN...SNOW...ETC/
    THUNDER OR FOG.

PAZ002>004-007>009-013>016-020>023-029>032-212000-
WESTERN PENNSYLVANIA

CITY           SKY/WX    TMP DP  RH WIND       PRES   REMARKS
ERIE           CLOUDY    61  37  41 S13       29.95F
MEADVILLE      CLOUDY    58  36  43 S8        29.98F
FRANKLIN*      CLOUDY    55  36  47 S9        30.00F
NEW CASTLE     FAIR      63  41  44 SW6       29.99F
BEAVER COUNTY  SUNNY     63  39  42 SW7       29.99F
BUTLER*        CLOUDY    63  37  39 S8        30.00F
PITTSBURGH INT CLOUDY    65  40  39 SW8       29.99F
PITTSBURGH     CLOUDY    65  36  34 S8        30.00F
INDIANA*       SUNNY     57  34  41 S8G14     30.06F
LATROBE        CLOUDY    64  37  36 SW9       30.03F
WASHINGTON CO* CLOUDY    66  39  37 SW9       30.03S
$$

PAZ004>006-010>012-017>019-024>028-033>037-041-042-045-046-049>053-212000-
CENTRAL PENNSYLVANIA

CITY           SKY/WX    TMP DP  RH WIND       PRES   REMARKS
BRADFORD       CLOUDY    48  26  42 S9        30.01F
DUBOIS         CLOUDY    52  27  38 S9        30.01F
CLEARFIELD       N/A    N/A N/A N/A MISG      30.06F
JOHNSTOWN      CLOUDY    51  30  44 S13       30.06F
ALTOONA        MOSUNNY   50  29  44 S10       30.11F
STATE COLLEGE  SUNNY     48  23  37 S12G17    30.12F
WILLIAMSPORT   CLOUDY    47  18  31 E8        30.16F
SELINSGROVE    CLOUDY    47  24  40 S9        30.19F
FT INDIANTOWN  PTSUNNY   48  24  38 S8        30.21F
CAPITAL CITY   CLOUDY    53  22  29 S9G16     30.20F
HARRISBURG     CLOUDY    50  28  42 SE8       30.19F
YORK           CLOUDY    51  27  39 VRB7      30.19F
$$

PAZ038>040-043-044-047-048-054-055-060>062-067>071-212000-
EASTERN PENNSYLVANIA

CITY           SKY/WX    TMP DP  RH WIND       PRES   REMARKS
SCRANTON       CLOUDY    48  21  34 VRB7      30.16F
MOUNT POCONO   CLOUDY    38  24  57 S12       30.16F
ALLENTOWN      CLOUDY    49  25  39 S9        30.22F
QUAKERTOWN*    PTCLDY    48  27  43 S9        30.22F
READING        MOSUNNY   49  29  46 SE7       30.21F
LANCASTER      PTSUNNY   50  27  40 S10       30.23F
COATESVILLE    PTCLDY    48  28  46 S9        30.23F
POTTSTOWN      MOSUNNY   49  27  42 S6        30.24F
BLUE BELL      MOSUNNY   48  30  49 SW9       30.23F
DOYLESTOWN     CLOUDY    49  28  44 VRB7      30.23F
WILLOW GROVE   NOT AVBL
NORTH PHILA    CLOUDY    51  28  41 S7        30.26F
PHILADELPHIA   CLOUDY    51  29  42 S12       30.25F
$$



USA.gov is the U.S. government's official web portal to all federal, state and local government web resources and services.